Skip Page Navigation
NASA JPL Caltech
NASA Logo - Jet Propulsion Laboratory + View the NASA Portal
+ Center for Near-Earth Object Studies
JPL Home Earth Solar System Stars & Galaxies Technology
JPL Solar System Dynamics
BODIES ORBITS EPHEMERIDES TOOLS PHYSICAL DATA DISCOVERY FAQ SITE MAP
IMPORTANT: The SSD Announcement email list is now available. Major changes are coming in the near future, including possible hostname and/or URL changes. To be notified of such changes, subscribe to this email list.

Please visit this page for more details.


JPL Small-Body Database Browser
Search: [ help ]  
85325 (1995 MO1)
Classification: Main-belt Asteroid          SPK-ID: 2085325
Ephemeris | Orbit Diagram | Orbital Elements | Mission Design | Physical Parameters | Discovery Circumstances | Close-Approach Data ]

[ show orbit diagram ]
Orbital Elements at Epoch 2459000.5 (2020-May-31.0) TDB
Reference: JPL 21 (heliocentric ecliptic J2000)
 Element Value Uncertainty (1-sigma)   Units 
e .107514491518365 4.5737e-08  
a 3.09955059005686 2.6839e-08 au
q 2.766303984431449 1.4639e-07 au
i 7.21063115207236 5.1155e-06 deg
node 192.102034237249 3.5755e-05 deg
peri 354.6739103338534 4.1623e-05 deg
M 313.5449333492224 2.3258e-05 deg
tp 2459257.703638147087
(2021-Feb-12.20363815)
0.00013038 TDB
period 1993.179999697652
5.46
2.5889e-05
7.088e-08
d
yr
n .1806159002471472 2.346e-09 deg/d
Q 3.432797195682272 2.9725e-08 au
  Orbit Determination Parameters
   # obs. used (total)      636  
   data-arc span      8990 days (24.61 yr)  
   first obs. used      1995-06-22  
   last obs. used      2020-02-01  
   planetary ephem.      DE431  
   SB-pert. ephem.      SB431-N16  
   condition code      0  
   norm. resid. RMS      .56026  
   source      ORB  
   producer      Otto Matic  
   solution date      2020-Feb-23 20:30:22  

Additional Information
 Earth MOID = 1.76755 au 
 Jupiter MOID = 1.5266 au 
 T_jup = 3.201 
[ show covariance matrix ]

Ephemeris | Orbit Diagram | Orbital Elements | Mission Design | Physical Parameters | Discovery Circumstances | Close-Approach Data ]

Physical Parameter Table
Parameter Symbol Value Units Sigma Reference Notes
absolute magnitude H 14.9   n/a MPO432397  
diameter diameter 5.375 km 0.270 urn:nasa:pds:neowise_diameters_albedos::2.0[mainbelt] (http://adsabs.harvard.edu/abs/2011ApJ...741...68M)  
geometric albedo albedo 0.067   0.012 urn:nasa:pds:neowise_diameters_albedos::2.0[mainbelt] (http://adsabs.harvard.edu/abs/2011ApJ...741...68M)  

85325 (1995 MO1)          Discovered 1995-Jun-22 by Spacewatch at Kitt Peak
Reference: 20040830/Numbers.arcLast Updated: 2004-09-06

[ show close-approach data ]
Ephemeris | Orbit Diagram | Orbital Elements | Mission Design | Physical Parameters | Discovery Circumstances | Close-Approach Data ]
ABOUT SSD CREDITS/AWARDS PRIVACY/COPYRIGHT GLOSSARY LINKS
FirstGov 2020-Mar-29 15:34 UT
(server date/time)  
NASA Home Page
Site Manager:   Ryan S. Park
Webmaster  Alan B. Chamberlin